GFSNIL_925_spd_276.txt.gz
Wind_Speed
10 10 13 13 14 11 9 10 9 10 12 14 15 16 16 18 20 19 17 18 18 17
16 15 15 13 13 12 9 7 6 9 14 16 16 16 14 18 21 19 17 19 17 16
17 15 14 13 11 8 7 6 6 8 12 15 15 14 15 19 21 21 19 19 19 18
16 16 14 11 8 7 7 6 7 8 11 13 16 12 13 17 19 22 23 20 20 22
16 15 12 10 9 8 5 6 8 7 10 12 14 12 11 13 17 21 24 21 20 21
15 11 13 15 9 6 6 7 9 9 10 13 15 12 10 11 16 19 20 20 21 21
17 17 14 7 6 7 7 8 9 10 11 12 12 11 12 15 17 17 19 18 19 21
18 13 8 6 6 5 8 9 8 9 12 13 12 14 13 13 14 15 15 16 20 19
15 11 10 8 7 9 10 10 11 12 13 16 19 16 13 12 13 15 18 21 21 19
16 15 12 10 10 10 11 10 11 13 15 19 21 18 18 18 17 19 20 20 20 20
15 15 12 11 11 10 11 12 13 13 18 20 23 23 23 21 19 21 22 21 22 20
14 12 12 11 12 16 14 11 13 17 20 20 22 26 24 23 23 25 25 26 27 23
12 12 10 11 18 15 18 21 19 18 19 21 22 22 25 25 25 26 26 27 27 28
13 12 14 15 17 19 21 21 17 19 18 18 19 22 25 27 27 26 27 26 27 28

GFSNIL_925_spd_279.txt.gz
Wind_Speed
10 12 13 15 14 10 9 7 7 7 9 10 10 8 12 15 16 14 14 16 17 16
14 16 16 16 10 10 8 6 4 5 8 8 10 8 12 16 18 18 16 16 17 17
18 16 15 15 13 9 7 5 3 4 6 9 11 5 11 14 16 19 20 18 19 19
19 17 17 14 10 8 6 2 1 1 5 6 8 4 7 10 14 18 19 19 19 19
19 19 16 11 9 8 3 1 2 3 4 7 8 5 7 10 13 15 17 18 18 19
19 16 14 12 10 5 2 2 4 4 7 9 9 8 9 10 13 13 15 16 17 17
16 17 18 14 8 5 5 5 5 8 9 10 9 10 10 11 12 13 14 16 17 16
23 21 14 11 7 8 8 7 7 6 8 12 14 15 13 13 13 14 16 17 17 14
19 16 13 10 11 11 10 7 8 14 15 16 17 14 14 14 13 14 15 18 18 15
14 13 13 13 11 11 9 11 14 15 14 16 15 14 14 13 13 14 16 16 16 18
17 15 16 13 10 12 13 14 16 15 15 14 16 15 14 14 16 16 17 17 16 18
18 18 15 12 15 15 15 20 18 15 14 14 15 15 17 19 21 21 19 18 18 17
17 16 14 16 14 16 22 20 15 14 14 17 20 23 24 25 28 28 28 28 27 21
16 15 18 19 19 23 21 17 15 16 18 19 19 21 22 22 23 23 25 27 29 29

GFSNIL_925_spd_285.txt.gz
Wind_Speed
12 10 11 15 12 10 9 8 5 3 3 4 2 4 6 7 8 10 8 8 8 7
13 13 16 14 11 10 9 7 5 2 2 3 1 1 3 5 8 9 10 10 10 8
16 16 17 17 13 14 11 7 5 3 1 2 2 2 3 4 6 7 9 10 10 10
15 16 19 17 15 12 9 6 3 2 0 1 2 2 3 5 7 8 8 8 9 10
19 17 17 15 13 10 8 6 4 3 2 1 2 3 4 6 7 7 8 9 10 12
21 21 15 14 11 11 8 6 5 5 3 4 5 4 5 5 6 7 8 9 10 10
20 19 16 14 13 10 8 8 7 6 5 5 5 5 6 5 5 6 7 8 8 9
9 15 16 15 13 12 9 9 9 7 5 6 7 6 6 7 7 8 9 10 10 10
17 15 18 17 15 14 13 11 10 8 6 6 6 5 6 7 8 9 10 11 11 10
20 19 20 17 17 15 14 12 10 9 7 8 9 10 11 13 11 12 13 14 14 14
15 20 19 18 15 15 14 12 10 8 9 11 11 14 17 18 14 14 15 13 15 16
21 20 16 15 14 14 14 13 11 11 13 14 16 17 16 15 13 13 13 12 13 13
18 19 17 15 15 15 13 13 10 14 16 16 15 14 14 12 9 9 8 8 8 15
17 17 18 16 16 15 13 12 15 14 13 14 13 11 10 10 7 6 6 6 7 8

GFSNIL_925_spd_291.txt.gz
Wind_Speed
13 13 11 10 7 7 6 8 7 4 4 5 4 5 7 3 10 11 11 12 11 13
15 12 7 9 8 7 8 8 8 5 3 4 3 4 8 6 4 10 12 13 13 13
17 12 8 11 9 10 9 9 6 4 1 3 3 3 7 10 9 10 10 10 10 11
18 16 15 14 11 10 9 7 5 3 1 3 6 6 6 6 6 8 6 8 9 11
18 17 17 16 15 13 9 5 4 2 3 5 6 6 6 6 6 5 6 7 8 9
17 18 18 18 16 14 11 6 5 6 6 5 5 4 5 5 6 7 8 9 9 11
24 23 21 22 19 15 11 9 7 6 5 5 5 5 5 6 6 5 6 7 9 11
22 20 20 25 29 22 15 12 8 6 6 5 5 3 4 5 5 6 8 9 9 12
17 16 21 13 21 24 19 15 11 7 6 4 2 6 9 8 7 8 8 8 8 8
20 18 18 18 19 16 19 16 13 8 7 5 5 10 14 11 7 7 8 8 9 10
21 21 21 19 20 20 17 15 12 9 8 7 8 15 15 13 7 7 7 6 6 6
26 24 21 18 17 14 14 13 11 10 11 12 14 14 10 6 5 4 3 2 3 3
25 25 23 20 19 16 14 13 12 12 12 12 12 11 9 3 3 1 3 5 5 9
21 21 20 22 19 17 15 14 13 13 11 10 9 9 7 3 4 5 7 8 8 7